Location: Meadowbank Aerodrome
(65.0250°N, 96.0705°W)
Time: 17:16:50
(UTC-05:00)

Cosmos 2221 - Visible Passes

Search period start: 28 August 2015 00:00
Search period end: 07 September 2015 00:00
Orbit: 595 x 619 km, 82.5° (Epoch: 28 August)

Date Brightness Start Highest point End Pass type
(mag) Time Alt. Az. Time Alt. Az. Time Alt. Az.
28 Aug 3.7 00:09:44 19° SE 00:11:48 28° E 00:15:32 10° NNE visible
28 Aug 2.7 01:46:38 24° SSW 01:49:11 69° WNW 01:53:30 10° NNE visible
28 Aug 4.5 03:24:18 10° W 03:27:38 21° NW 03:30:56 10° N visible
29 Aug 3.3 00:23:15 24° SE 00:25:16 38° E 00:29:18 10° NNE visible
29 Aug 3.1 02:00:09 20° SW 02:02:52 51° WNW 02:07:07 10° NNE visible
29 Aug 4.8 03:38:37 10° W 03:41:33 17° NW 03:44:26 10° N visible
29 Aug 4.6 22:59:56 10° ESE 23:01:59 14° ENE 23:04:10 10° NE visible
30 Aug 2.8 00:36:46 28° SSE 00:38:47 53° E 00:43:00 10° NNE visible
30 Aug 3.6 02:13:40 17° WSW 02:16:37 38° WNW 02:20:42 10° N visible
30 Aug 5.0 03:53:04 10° WNW 03:55:31 14° NW 03:57:54 10° N visible
30 Aug 4.3 23:13:22 14° ESE 23:15:20 18° E 23:18:19 10° NE visible
31 Aug 2.5 00:50:16 30° S 00:52:20 73° ESE 00:56:41 10° NNE visible
31 Aug 4.0 02:27:10 13° WSW 02:30:25 30° NW 02:34:15 10° N visible
31 Aug 5.1 04:07:40 10° NW 04:09:31 12° NNW 04:11:18 10° N visible
31 Aug 3.9 23:26:52 18° ESE 23:28:43 24° E 23:32:14 10° NNE visible
01 Sep 2.5 01:03:45 29° SSW 01:05:57 82° WNW 01:10:19 10° NNE visible
01 Sep 4.4 02:40:43 10° WSW 02:44:16 24° NW 02:47:48 10° N visible
01 Sep 5.2 04:22:31 10° NW 04:23:33 11° NNW 04:24:31 10° N visible
01 Sep 3.5 23:40:21 23° SE 23:42:09 32° E 23:46:02 10° NNE visible
02 Sep 2.9 01:17:15 25° SW 01:19:37 61° WNW 01:23:55 10° NNE visible
02 Sep 4.7 02:54:58 10° W 02:58:09 19° NW 03:01:19 10° N visible
02 Sep 4.7 22:17:40 10° E 22:18:58 11° ENE 22:20:24 10° NE visible
02 Sep 3.0 23:53:49 28° SSE 23:55:38 44° E 23:59:46 10° NNE visible
03 Sep 3.4 01:30:43 21° SW 01:33:20 45° WNW 01:37:31 10° NNE visible
03 Sep 5.0 03:09:20 10° WNW 03:12:06 16° NW 03:14:48 10° N visible
03 Sep 4.4 22:30:23 12° ESE 22:32:16 15° ENE 22:34:51 10° NE visible
04 Sep 2.6 00:07:17 31° SSE 00:09:09 61° E 00:13:27 10° NNE visible
04 Sep 3.8 01:44:11 16° WSW 01:47:05 34° WNW 01:51:05 10° N visible
04 Sep 5.1 03:23:49 10° WNW 03:26:04 14° NNW 03:28:15 10° N visible
04 Sep 4.1 22:43:50 16° ESE 22:45:38 20° E 22:48:52 10° NE visible
05 Sep 2.4 00:20:44 32° S 00:22:43 83° ESE 00:27:06 10° NNE visible
05 Sep 4.3 01:57:38 12° WSW 02:00:54 27° NW 02:04:38 10° N visible
05 Sep 5.2 03:38:29 10° NW 03:40:04 12° NNW 03:41:37 10° N visible
05 Sep 3.7 22:57:17 21° SE 22:59:01 27° E 23:02:43 10° NNE visible
06 Sep 2.6 00:34:11 29° SSW 00:36:21 73° WNW 00:40:43 10° NNE visible
06 Sep 4.6 02:11:20 10° W 02:14:45 22° NW 02:18:10 10° N visible
06 Sep 5.4 03:53:34 10° NNW 03:54:07 10° NNW 03:54:37 10° NNW visible
06 Sep 3.2 23:10:43 25° SE 23:12:28 37° E 23:16:29 10° NNE visible
